| time (UTC) | temp F | wind direction | speed MPH | gust MPH | rain 1hr in | rain 24hr in | rain mn in | humidity % | barometer mb |
| 20260506044515 | 51 | 168 | 0.0 | 5.0 | 0.00 | 0.00 | 0.00 | 92 | 1016.0 |
| 20260506043017 | 51 | 171 | 1.0 | 6.0 | 0.00 | 0.00 | 0.00 | 92 | 1015.9 |
| 20260506041512 | 51 | 113 | 0.0 | 5.0 | 0.00 | 0.00 | 0.00 | 91 | 1015.8 |
| 20260506040018 | 52 | 207 | 0.0 | 4.0 | 0.00 | 0.00 | 0.00 | 90 | 1015.6 |
| 20260506034513 | 52 | 271 | 0.0 | 5.0 | 0.00 | 0.00 | 0.00 | 89 | 1015.3 |
| 20260506033015 | 53 | 99 | 1.0 | 7.0 | 0.00 | 0.00 | 0.00 | 88 | 1015.3 |
| 20260506031511 | 54 | 76 | 0.0 | 5.0 | 0.00 | 0.00 | 0.00 | 86 | 1015.2 |
| 20260506030011 | 55 | 234 | 1.0 | 5.0 | 0.00 | 0.00 | 0.00 | 85 | 1015.2 |
| 20260506024524 | 56 | 231 | 1.0 | 7.0 | 0.00 | 0.00 | 0.00 | 83 | 1015.3 |
| 20260506023011 | 56 | 151 | 2.0 | 7.0 | 0.00 | 0.00 | 0.00 | 82 | 1015.2 |
| 20260506021509 | 57 | 143 | 2.0 | 6.0 | 0.00 | 0.00 | 0.00 | 82 | 1015.4 |
| 20260506020009 | 58 | 207 | 0.0 | 4.0 | 0.00 | 0.00 | 0.00 | 82 | 1015.3 |
| 20260506014520 | 58 | 194 | 1.0 | 6.0 | 0.00 | 0.00 | 0.00 | 80 | 1015.3 |
| 20260506013008 | 59 | 223 | 1.0 | 6.0 | 0.00 | 0.00 | 0.00 | 79 | 1015.4 |
| 20260506011518 | 60 | 230 | 1.0 | 5.0 | 0.00 | 0.00 | 0.00 | 77 | 1015.5 |
| 20260506010011 | 60 | 148 | 2.0 | 5.0 | 0.00 | 0.00 | 0.00 | 77 | 1015.4 |
| 20260506004507 | 60 | 144 | 1.0 | 6.0 | 0.00 | 0.00 | 0.00 | 78 | 1015.4 |
| 20260506003005 | 60 | 291 | 1.0 | 5.0 | 0.00 | 0.00 | 0.00 | 79 | 1015.5 |
| 20260506001504 | 60 | 195 | 0.0 | 7.0 | 0.00 | 0.00 | 0.00 | 78 | 1015.5 |
| 20260506000004 | 61 | 115 | 1.0 | 5.0 | 0.00 | 0.00 | 0.00 | 79 | 1015.6 |
| 20260505234505 | 60 | 179 | 1.0 | 5.0 | 0.00 | 0.00 | 0.00 | 81 | 1015.7 |
| 20260505233001 | 58 | 223 | 3.0 | 7.0 | 0.00 | 0.00 | 0.00 | 81 | 1016.0 |
| 20260505231559 | 60 | 94 | 1.0 | 5.0 | 0.00 | 0.00 | 0.00 | 80 | 1016.0 |
| 20260505230059 | 59 | 234 | 2.0 | 6.0 | 0.00 | 0.00 | 0.00 | 81 | 1016.2 |
| 20260505224559 | 59 | 116 | 1.0 | 4.0 | 0.00 | 0.00 | 0.00 | 81 | 1016.2 |
| 20260505223111 | 59 | 211 | 2.0 | 7.0 | 0.00 | 0.00 | 0.00 | 81 | 1016.4 |
| 20260505221603 | 60 | 153 | 1.0 | 6.0 | 0.00 | 0.00 | 0.00 | 82 | 1016.5 |
| 20260505220054 | 58 | 199 | 1.0 | 6.0 | 0.00 | 0.00 | 0.00 | 85 | 1016.5 |
| 20260505214558 | 58 | 141 | 1.0 | 5.0 | 0.00 | 0.00 | 0.00 | 84 | 1016.7 |
| 20260505213053 | 57 | 107 | 1.0 | 4.0 | 0.00 | 0.00 | 0.00 | 86 | 1016.7 |
| 20260505211555 | 57 | 203 | 0.0 | 5.0 | 0.00 | 0.00 | 0.00 | 89 | 1016.7 |
| 20260505210045 | 57 | 206 | 1.0 | 4.0 | 0.00 | 0.00 | 0.00 | 90 | 1016.8 |
| 20260505204543 | 56 | 154 | 1.0 | 4.0 | 0.00 | 0.00 | 0.00 | 93 | 1016.9 |
| 20260505203051 | 55 | 200 | 1.0 | 7.0 | 0.00 | 0.00 | 0.00 | 95 | 1016.8 |
| 20260505201539 | 55 | 248 | 1.0 | 6.0 | 0.00 | 0.00 | 0.00 | 95 | 1016.8 |
| 20260505200039 | 55 | 114 | 1.0 | 5.0 | 0.00 | 0.00 | 0.00 | 95 | 1016.7 |
| 20260505194542 | 54 | 217 | 2.0 | 5.0 | 0.00 | 0.00 | 0.00 | 95 | 1016.8 |
| 20260505193035 | 54 | 238 | 1.0 | 5.0 | 0.00 | 0.00 | 0.00 | 95 | 1016.8 |
| 20260505191542 | 55 | 193 | 0.0 | 4.0 | 0.00 | 0.00 | 0.00 | 96 | 1016.7 |
| 20260505190034 | 54 | 214 | 0.0 | 3.0 | 0.00 | 0.00 | 0.00 | 96 | 1016.8 |
| 20260505184543 | 54 | 98 | 0.0 | 3.0 | 0.00 | 0.00 | 0.00 | 97 | 1016.7 |
| 20260505183038 | 53 | 218 | 0.0 | 3.0 | 0.00 | 0.00 | 0.00 | 96 | 1016.6 |
| 20260505181528 | 53 | 238 | 0.0 | 4.0 | 0.00 | 0.00 | 0.00 | 96 | 1016.6 |
| 20260505180027 | 53 | 235 | 0.0 | 2.0 | 0.00 | 0.00 | 0.00 | 97 | 1016.5 |
| 20260505174524 | 53 | 242 | 0.0 | 2.0 | 0.00 | 0.00 | 0.00 | 96 | 1016.5 |
| 20260505173023 | 53 | 273 | 0.0 | 2.0 | 0.00 | 0.00 | 0.00 | 97 | 1016.5 |
| 20260505171525 | 52 | 299 | 0.0 | 2.0 | 0.00 | 0.00 | 0.00 | 97 | 1016.4 |
| 20260505170030 | 52 | 253 | 0.0 | 2.0 | 0.00 | 0.00 | 0.00 | 97 | 1016.3 |
| 20260505164520 | 52 | 143 | 0.0 | 2.0 | 0.00 | 0.00 | 0.00 | 97 | 1016.3 |
| 20260505163025 | 51 | 226 | 0.0 | 2.0 | 0.00 | 0.00 | 0.00 | 97 | 1016.3 |
| 20260505161519 | 51 | 179 | 0.0 | 1.0 | 0.00 | 0.00 | 0.00 | 97 | 1016.4 |
| 20260505153015 | 51 | 142 | 0.0 | 2.0 | 0.00 | 0.00 | 0.00 | 96 | 1016.1 |
| 20260505151512 | 51 | 152 | 0.0 | 3.0 | 0.00 | 0.00 | 0.00 | 96 | 1016.0 |
| 20260505124601 | 50 | 191 | 0.0 | 5.0 | 0.00 | 0.00 | 0.00 | 95 | 1014.5 |
| 20260505124501 | 50 | 142 | 1.0 | 5.0 | 0.00 | 0.00 | 0.00 | 95 | 1014.4 |
| 20260505123056 | 50 | 109 | 0.0 | 7.0 | 0.00 | 0.00 | 0.00 | 95 | 1014.3 |
| 20260505121552 | 50 | 134 | 1.0 | 5.0 | 0.00 | 0.00 | 0.00 | 96 | 1014.2 |
| 20260505120105 | 49 | 112 | 1.0 | 5.0 | 0.00 | 0.00 | 0.00 | 95 | 1014.0 |
| 20260505114549 | 49 | 118 | 1.0 | 6.0 | 0.00 | 0.00 | 0.00 | 95 | 1013.9 |
| 20260505113054 | 49 | 233 | 1.0 | 6.0 | 0.00 | 0.00 | 0.00 | 95 | 1013.7 |
| 20260505111547 | 49 | 242 | 0.0 | 6.0 | 0.00 | 0.00 | 0.00 | 95 | 1013.6 |
| 20260505101537 | 50 | 147 | 0.0 | 7.0 | 0.00 | 0.00 | 0.00 | 94 | 1013.0 |
| 20260505100036 | 50 | 76 | 1.0 | 6.0 | 0.00 | 0.00 | 0.00 | 94 | 1013.0 |
| 20260505094531 | 50 | 219 | 1.0 | 6.0 | 0.00 | 0.00 | 0.00 | 94 | 1013.0 |
| 20260505093034 | 50 | 144 | 1.0 | 5.0 | 0.00 | 0.00 | 0.00 | 93 | 1012.8 |
| 20260505091528 | 50 | 235 | 0.0 | 6.0 | 0.00 | 0.00 | 0.00 | 93 | 1012.6 |
| 20260505090030 | 51 | 155 | 1.0 | 7.0 | 0.00 | 0.00 | 0.00 | 92 | 1012.5 |
| 20260505084529 | 51 | 37 | 0.0 | 8.0 | 0.00 | 0.00 | 0.00 | 91 | 1012.3 |
| 20260505083021 | 51 | 205 | 6.0 | 10.0 | 0.00 | 0.00 | 0.00 | 91 | 1012.2 |
| 20260505081515 | 52 | 143 | 4.0 | 11.0 | 0.00 | 0.00 | 0.00 | 90 | 1011.9 |
| 20260505080025 | 52 | 300 | 3.0 | 15.0 | 0.00 | 0.00 | 0.00 | 89 | 1011.9 |
| 20260505074510 | 52 | 135 | 3.0 | 12.0 | 0.00 | 0.00 | 0.00 | 91 | 1011.7 |
| 20260505073006 | 51 | 261 | 5.0 | 13.0 | 0.00 | 0.00 | 0.00 | 91 | 1011.3 |
| 20260505071504 | 51 | 245 | 5.0 | 14.0 | 0.00 | 0.00 | 0.00 | 91 | 1011.1 |
| 20260505070002 | 51 | 129 | 4.0 | 14.0 | 0.00 | 0.00 | 0.00 | 91 | 1011.1 |
| 20260505064559 | 52 | 119 | 5.0 | 12.0 | 0.00 | 0.00 | 0.00 | 90 | 1010.9 |
| 20260505063056 | 52 | 257 | 3.0 | 9.0 | 0.00 | 0.00 | 0.00 | 89 | 1010.9 |
| 20260505061612 | 53 | 160 | 3.0 | 8.0 | 0.00 | 0.00 | 0.00 | 87 | 1010.7 |
| 20260505060057 | 53 | 47 | 1.0 | 8.0 | 0.00 | 0.00 | 0.00 | 86 | 1010.6 |
| 20260505054555 | 54 | 172 | 1.0 | 7.0 | 0.00 | 0.00 | 0.00 | 84 | 1010.5 |
| 20260505053049 | 54 | 86 | 2.0 | 8.0 | 0.00 | 0.00 | 0.00 | 83 | 1010.4 |
| 20260505051549 | 55 | 210 | 1.0 | 6.0 | 0.00 | 0.00 | 0.00 | 81 | 1010.2 |